Back to Top

Language: 

My Weather Underground Personal Weather Station Historical Data with Graphs...

Delerius Weather Station Historical Data
Daily Summary for January 13, 2017 Units:  Metric    English   Both
« Previous Day
Next Day »
Daily Weekly Monthly Yearly Custom
  High: Low: Average:
Temperature: 5.6 °C 0.1 °C 2.3 °C
Dew Point: 1.2 °C -4.2 °C -1 °C
Humidity: 94 % 68 % 79 %
Wind Speed: 37 km/h 8 km/h 17.5 km/h
Wind Gust: 64.4 km/h - -
Wind:- - WNW
Pressure: 1015.8 hPa 998.5 hPa -
Precipitation: 1.27 mm    
Historical Graphs
 
 
Tabular Data for January 13, 2017
Time Temperature Dew Point Pressure Wind Wind Speed Wind Gust Humidity Rainfall Rate (Hourly) solar Conditions
00:00 1.2 °C -0.6 °C 998.5 hPa WNW 14.5 km/h 56.3 km/h 88 % 0 mm 0 W/m2
00:05 1.2 °C -0.6 °C 998.9 hPa NW 14.5 km/h 56.3 km/h 88 % 0 mm 0 W/m2
00:15 1.2 °C -0.6 °C 998.9 hPa WNW 12.9 km/h 17.7 km/h 88 % 0 mm 0 W/m2
00:20 1.1 °C -0.7 °C 998.9 hPa NW 11.3 km/h 19.3 km/h 88 % 0 mm 0 W/m2
00:25 1.1 °C -0.7 °C 998.9 hPa WNW 14.5 km/h 19.3 km/h 88 % 0 mm 0 W/m2
00:30 1.1 °C -0.7 °C 999.2 hPa WNW 14.5 km/h 14.5 km/h 88 % 0 mm 0 W/m2
00:40 1 °C -0.8 °C 999.2 hPa WNW 12.9 km/h 17.7 km/h 88 % 0 mm 0 W/m2
00:45 1 °C -0.8 °C 999.5 hPa West 14.5 km/h 17.7 km/h 88 % 0 mm 0 W/m2
00:50 0.9 °C -0.8 °C 999.5 hPa WNW 12.9 km/h 12.9 km/h 88 % 0 mm 0 W/m2
00:55 0.9 °C -0.8 °C 999.5 hPa NW 14.5 km/h 14.5 km/h 88 % 0 mm 0 W/m2
01:00 0.9 °C -0.8 °C 999.9 hPa NW 14.5 km/h 16.1 km/h 88 % 0 mm 0 W/m2
01:05 0.9 °C -1.1 °C 999.9 hPa WNW 12.9 km/h 29 km/h 87 % 0 mm 0 W/m2
01:15 0.9 °C -1.1 °C 1000.2 hPa WNW 12.9 km/h 17.7 km/h 87 % 0 mm 0 W/m2
01:20 0.8 °C -1.1 °C 999.9 hPa WNW 11.3 km/h 11.3 km/h 87 % 0 mm 0 W/m2
01:25 0.8 °C -1.2 °C 1000.2 hPa WNW 11.3 km/h 14.5 km/h 87 % 0 mm 0 W/m2
01:30 0.7 °C -1.2 °C 1000.2 hPa WNW 11.3 km/h 29 km/h 87 % 0 mm 0 W/m2
01:35 0.6 °C -1.3 °C 1000.2 hPa West 12.9 km/h 29 km/h 87 % 0 mm 0 W/m2
01:40 0.6 °C -1.3 °C 1000.2 hPa West 12.9 km/h 12.9 km/h 87 % 0 mm 0 W/m2
01:45 0.5 °C -1.4 °C 1000.6 hPa WNW 12.9 km/h 29 km/h 87 % 0 mm 0 W/m2
01:55 0.4 °C -1.4 °C 1000.6 hPa NW 9.7 km/h 29 km/h 87 % 0 mm 0 W/m2
02:00 0.4 °C -1.5 °C 1000.6 hPa WNW 8 km/h 29 km/h 87 % 0 mm 0 W/m2
02:05 0.3 °C -1.6 °C 1000.6 hPa WNW 9.7 km/h 29 km/h 87 % 0 mm 0 W/m2
02:10 0.3 °C -1.6 °C 1000.9 hPa WNW 11.3 km/h 29 km/h 87 % 0 mm 0 W/m2
02:15 0.3 °C -1.6 °C 1000.9 hPa NW 12.9 km/h 29 km/h 87 % 0 mm 0 W/m2
02:20 0.3 °C -1.6 °C 1000.9 hPa WNW 14.5 km/h 29 km/h 87 % 0 mm 0 W/m2
02:30 0.4 °C -1.4 °C 1001.2 hPa WNW 14.5 km/h 29 km/h 87 % 0 mm 0 W/m2
02:35 0.4 °C -1.4 °C 1001.2 hPa WNW 14.5 km/h 29 km/h 87 % 0 mm 0 W/m2
02:40 0.4 °C -1.6 °C 1001.2 hPa WNW 16.1 km/h 29 km/h 86 % 0 mm 0 W/m2
02:45 0.4 °C -1.6 °C 1001.2 hPa West 14.5 km/h 29 km/h 86 % 0 mm 0 W/m2
02:50 0.4 °C -1.6 °C 1001.6 hPa NW 14.5 km/h 14.5 km/h 86 % 0 mm 0 W/m2
02:55 0.4 °C -1.6 °C 1001.2 hPa WNW 12.9 km/h 29 km/h 86 % 0 mm 0 W/m2
03:05 0.3 °C -1.9 °C 1001.2 hPa West 11.3 km/h 29 km/h 85 % 0 mm 0 W/m2
03:10 0.3 °C -1.9 °C 1001.2 hPa WNW 11.3 km/h 29 km/h 85 % 0 mm 0 W/m2
03:15 0.4 °C -1.9 °C 1001.2 hPa WNW 16.1 km/h 29 km/h 84 % 0 mm 0 W/m2
03:20 0.6 °C -1.8 °C 1001.6 hPa WNW 19.3 km/h 29 km/h 84 % 0 mm 0 W/m2
03:25 0.7 °C -1.8 °C 1001.2 hPa WNW 19.3 km/h 29 km/h 83 % 0 mm 0 W/m2
03:35 0.8 °C -1.9 °C 1001.2 hPa WNW 20.9 km/h 29 km/h 82 % 0 mm 0 W/m2
03:40 0.9 °C -2 °C 1001.6 hPa WNW 20.9 km/h 20.9 km/h 81 % 0 mm 0 W/m2
03:50 0.8 °C -1.9 °C 1001.6 hPa WNW 20.9 km/h 20.9 km/h 82 % 0 mm 0 W/m2
03:55 0.8 °C -1.9 °C 1001.6 hPa WNW 19.3 km/h 29 km/h 82 % 0 mm 0 W/m2
04:00 0.8 °C -1.9 °C 1001.2 hPa WNW 17.7 km/h 29 km/h 82 % 0 mm 0 W/m2
04:05 0.8 °C -2.1 °C 1001.2 hPa West 17.7 km/h 29 km/h 81 % 0 mm 0 W/m2
04:10 0.8 °C -2.2 °C 1001.2 hPa WNW 17.7 km/h 29 km/h 80 % 0 mm 0 W/m2
04:20 1 °C -2.4 °C 1001.2 hPa West 19.3 km/h 29 km/h 78 % 0 mm 0 W/m2
04:25 1.1 °C -2.6 °C 1001.6 hPa WNW 20.9 km/h 29 km/h 77 % 0 mm 0 W/m2
04:30 1.1 °C -2.6 °C 1001.6 hPa West 19.3 km/h 19.3 km/h 77 % 0 mm 0 W/m2
04:35 1.1 °C -2.3 °C 1001.6 hPa WNW 20.9 km/h 41.8 km/h 78 % 0 mm 0 W/m2
04:40 1.1 °C -2.1 °C 1001.6 hPa WNW 22.5 km/h 22.5 km/h 79 % 0 mm 0 W/m2
04:45 1.2 °C -1.9 °C 1001.6 hPa NW 20.9 km/h 29 km/h 80 % 0 mm 0 W/m2
04:54 1.1 °C -1.8 °C 1001.2 hPa WNW 19.3 km/h 29 km/h 81 % 0 mm 0 W/m2
05:00 1.2 °C -1.7 °C 1001.6 hPa WNW 20.9 km/h 29 km/h 81 % 0 mm 0 W/m2
05:05 1.3 °C -1.7 °C 1001.2 hPa West 27.4 km/h 33.8 km/h 80 % 0 mm 0 W/m2
05:10 1.4 °C -1.6 °C 1001.2 hPa WNW 27.4 km/h 30.6 km/h 80 % 0 mm 0 W/m2
05:15 1.5 °C -1.7 °C 1001.2 hPa NW 27.4 km/h 30.6 km/h 79 % 0 mm 0 W/m2
05:20 1.6 °C -1.8 °C 1001.2 hPa NW 29 km/h 29 km/h 78 % 0 mm 0 W/m2
05:30 1.7 °C -1.6 °C 1001.2 hPa West 24.1 km/h 24.1 km/h 79 % 0 mm 0 W/m2
05:40 1.7 °C -1.4 °C 1000.9 hPa WNW 22.5 km/h 29 km/h 80 % 0 mm 0 W/m2
05:45 1.7 °C -1.4 °C 1000.9 hPa WNW 24.1 km/h 29 km/h 80 % 0 mm 0 W/m2
05:50 1.7 °C -1.2 °C 1000.6 hPa WSW 24.1 km/h 24.1 km/h 81 % 0 mm 0 W/m2
05:55 1.8 °C -1.1 °C 1000.6 hPa WSW 25.7 km/h 25.7 km/h 81 % 0 mm 0 W/m2
06:00 1.8 °C -0.8 °C 1000.6 hPa WNW 25.7 km/h 33.8 km/h 83 % 0 mm 0 W/m2
06:05 1.7 °C -0.7 °C 1000.9 hPa WNW 30.6 km/h 41.8 km/h 84 % 0 mm 0 W/m2
06:15 1.7 °C -0.6 °C 1000.6 hPa WNW 30.6 km/h 64.4 km/h 85 % 0 mm 0 W/m2
06:20 1.8 °C -0.5 °C 1000.6 hPa WNW 32.2 km/h 32.2 km/h 85 % 0 mm 0 W/m2
06:25 1.7 °C -0.4 °C 1000.9 hPa NW 32.2 km/h 49.9 km/h 86 % 0 mm 0 W/m2
06:30 1.7 °C -0.2 °C 1000.9 hPa WNW 30.6 km/h 37 km/h 87 % 0 mm 0 W/m2
06:35 1.7 °C -0.1 °C 1000.9 hPa WNW 30.6 km/h 37 km/h 88 % 0 mm 0 W/m2
06:40 1.7 °C -0.1 °C 1000.9 hPa WNW 33.8 km/h 45.1 km/h 88 % 0 mm 0 W/m2
06:50 1.7 °C 0.1 °C 1001.2 hPa WNW 32.2 km/h 40.2 km/h 89 % 0 mm 0 W/m2
06:55 1.6 °C 0.2 °C 1000.9 hPa WNW 32.2 km/h 40.2 km/h 90 % 0 mm 0 W/m2
07:00 1.5 °C 0.2 °C 1000.9 hPa WNW 29 km/h 45.1 km/h 91 % 0 mm 0 W/m2
07:05 1.5 °C 0.3 °C 1001.2 hPa West 30.6 km/h 45.1 km/h 92 % 0 mm 0 W/m2
07:10 1.5 °C 0.3 °C 1001.2 hPa WNW 33.8 km/h 33.8 km/h 92 % 0 mm 0 W/m2
07:15 1.4 °C 0.3 °C 1001.2 hPa WNW 37 km/h 46.7 km/h 92 % 0 mm 0 W/m2
07:20 1.4 °C 0.4 °C 1001.2 hPa WNW 35.4 km/h 35.4 km/h 93 % 0 mm 0 W/m2
07:30 1.4 °C 0.4 °C 1001.2 hPa WNW 30.6 km/h 40.2 km/h 93 % 2.29 mm 0 W/m2
07:35 1.6 °C 0.7 °C 1001.2 hPa WNW 32.2 km/h 40.2 km/h 94 % 2.29 mm 0 W/m2
07:40 1.6 °C 0.6 °C 1001.6 hPa WNW 30.6 km/h 40.2 km/h 93 % 1.78 mm 0 W/m2
07:45 1.7 °C 0.7 °C 1001.6 hPa West 30.6 km/h 40.2 km/h 93 % 1.78 mm 0 W/m2
07:50 1.8 °C 0.8 °C 1001.6 hPa WNW 32.2 km/h 32.2 km/h 93 % 1.78 mm 0 W/m2
07:55 1.9 °C 0.9 °C 1001.9 hPa WNW 29 km/h 32.2 km/h 93 % 1.78 mm 0 W/m2
08:00 2.1 °C 1.1 °C 1001.9 hPa WNW 27.4 km/h 27.4 km/h 93 % 1.27 mm 0 W/m2
08:10 2.2 °C 1.1 °C 1001.9 hPa WNW 25.7 km/h 25.7 km/h 92 % 0 mm 0 W/m2
08:15 2.3 °C 0.9 °C 1001.9 hPa WNW 25.7 km/h 29 km/h 91 % 0 mm 0 W/m2
08:20 2.4 °C 1.1 °C 1002.3 hPa WNW 27.4 km/h 27.4 km/h 91 % 0 mm 0 W/m2
08:25 2.4 °C 0.9 °C 1002.6 hPa WNW 24.1 km/h 29 km/h 90 % 0 mm 7 W/m2
08:30 2.5 °C 0.9 °C 1002.6 hPa NW 24.1 km/h 35.4 km/h 89 % 0 mm 11 W/m2
08:35 2.7 °C 0.9 °C 1002.9 hPa WNW 25.7 km/h 35.4 km/h 88 % 0 mm 11 W/m2
08:40 2.8 °C 0.8 °C 1002.9 hPa WNW 25.7 km/h 38.6 km/h 87 % 0 mm 11 W/m2
08:50 2.9 °C 0.7 °C 1003.3 hPa WNW 25.7 km/h 25.7 km/h 85 % 0 mm 14 W/m2
08:55 3.1 °C 0.6 °C 1003.6 hPa WNW 25.7 km/h 29 km/h 84 % 0 mm 12 W/m2
09:00 3.1 °C 0.6 °C 1003.6 hPa NW 24.1 km/h 29 km/h 84 % 0 mm 16 W/m2
09:05 3.1 °C 0.4 °C 1003.9 hPa NNW 24.1 km/h 38.6 km/h 83 % 0 mm 14 W/m2
09:10 3.1 °C 0.3 °C 1003.9 hPa NW 25.7 km/h 25.7 km/h 82 % 0 mm 16 W/m2
09:15 3.1 °C 0.3 °C 1004.3 hPa NW 22.5 km/h 29 km/h 82 % 0 mm 16 W/m2
09:25 3.1 °C 0.3 °C 1004.6 hPa West 22.5 km/h 29 km/h 82 % 0 mm 26 W/m2
09:35 3.2 °C 0.6 °C 1005.3 hPa West 20.9 km/h 29 km/h 83 % 0 mm 160 W/m2
09:40 3.3 °C 0.7 °C 1005.3 hPa WNW 22.5 km/h 29 km/h 83 % 0 mm 153 W/m2
09:45 3.5 °C 0.7 °C 1005.6 hPa NW 24.1 km/h 29 km/h 82 % 0 mm 158 W/m2
09:50 3.7 °C 0.7 °C 1005.6 hPa West 24.1 km/h 33.8 km/h 81 % 0 mm 162 W/m2
09:55 3.8 °C 0.7 °C 1006 hPa WNW 24.1 km/h 33.8 km/h 80 % 0 mm 197 W/m2
10:00 4 °C 0.7 °C 1006.3 hPa WNW 22.5 km/h 22.5 km/h 79 % 0 mm 207 W/m2
10:10 3.9 °C 0.4 °C 1006.7 hPa West 22.5 km/h 22.5 km/h 78 % 0 mm 67 W/m2
10:15 3.8 °C 0.3 °C 1006.7 hPa West 20.9 km/h 29 km/h 78 % 0 mm 70 W/m2
10:20 3.8 °C 0.5 °C 1006.7 hPa West 19.3 km/h 29 km/h 79 % 0 mm 95 W/m2
10:30 3.8 °C 0.4 °C 1007 hPa West 19.3 km/h 19.3 km/h 79 % 0 mm 84 W/m2
10:35 3.8 °C 0.4 °C 1007 hPa NW 17.7 km/h 29 km/h 79 % 0 mm 69 W/m2
10:40 3.7 °C 0.4 °C 1007.3 hPa WNW 17.7 km/h 29 km/h 79 % 0 mm 79 W/m2
10:45 3.7 °C 0.6 °C 1007.3 hPa WNW 17.7 km/h 29 km/h 80 % 0 mm 125 W/m2
10:50 3.7 °C 0.4 °C 1007.3 hPa WNW 19.3 km/h 29 km/h 79 % 0 mm 105 W/m2
10:55 3.8 °C 0.4 °C 1007.3 hPa NW 19.3 km/h 29 km/h 79 % 0 mm 114 W/m2
11:05 4.1 °C 0.8 °C 1007.3 hPa WNW 20.9 km/h 22.5 km/h 79 % 0 mm 294 W/m2
11:10 4.4 °C 0.9 °C 1007.7 hPa WNW 22.5 km/h 22.5 km/h 78 % 0 mm 308 W/m2
11:15 4.7 °C 1.1 °C 1007.7 hPa WNW 20.9 km/h 24.1 km/h 77 % 0 mm 320 W/m2
11:20 5 °C 1.1 °C 1007.7 hPa NW 22.5 km/h 29 km/h 76 % 0 mm 341 W/m2
11:25 5.2 °C 1.2 °C 1008 hPa WNW 22.5 km/h 29 km/h 75 % 0 mm 385 W/m2
11:30 5.5 °C 1.2 °C 1008 hPa WNW 19.3 km/h 29 km/h 74 % 0 mm 390 W/m2
11:40 5.6 °C 1.2 °C 1008.4 hPa NW 17.7 km/h 17.7 km/h 73 % 0 mm 178 W/m2
11:45 5.5 °C 0.8 °C 1008.4 hPa WNW 19.3 km/h 19.3 km/h 72 % 0 mm 116 W/m2
11:50 5.3 °C 0.6 °C 1008.4 hPa WNW 19.3 km/h 29 km/h 72 % 0 mm 125 W/m2
11:55 5.2 °C 0.7 °C 1008.7 hPa NW 17.7 km/h 29 km/h 73 % 0 mm 95 W/m2
12:00 5 °C 0.7 °C 1008.7 hPa WNW 17.7 km/h 29 km/h 74 % 0 mm 97 W/m2
12:05 4.9 °C 0.7 °C 1009 hPa NNW 19.3 km/h 29 km/h 74 % 0 mm 149 W/m2
12:10 4.8 °C 0.6 °C 1008.7 hPa WNW 20.9 km/h 45.1 km/h 74 % 0 mm 155 W/m2
12:20 5.3 °C 1 °C 1009 hPa WNW 19.3 km/h 32.2 km/h 74 % 0 mm 186 W/m2
12:25 5.3 °C 0.9 °C 1009 hPa NW 17.7 km/h 32.2 km/h 73 % 0 mm 121 W/m2
12:30 5.2 °C 0.3 °C 1009 hPa WNW 19.3 km/h 29 km/h 71 % 0 mm 102 W/m2
12:35 5.1 °C 0.6 °C 1009 hPa WNW 19.3 km/h 29 km/h 73 % 0 mm 100 W/m2
12:40 5 °C 0.4 °C 1009.4 hPa NW 17.7 km/h 29 km/h 72 % 0 mm 95 W/m2
12:45 5 °C 0.6 °C 1009.4 hPa West 16.1 km/h 29 km/h 73 % 0 mm 91 W/m2
12:55 4.9 °C 0.5 °C 1009.7 hPa NNE 17.7 km/h 17.7 km/h 73 % 0 mm 104 W/m2
13:00 4.9 °C 0.5 °C 1009.7 hPa WNW 17.7 km/h 29 km/h 73 % 0 mm 81 W/m2
13:05 4.9 °C 0.3 °C 1009.7 hPa NW 17.7 km/h 29 km/h 72 % 0 mm 88 W/m2
13:10 4.9 °C 0.3 °C 1009.7 hPa NW 19.3 km/h 19.3 km/h 72 % 0 mm 135 W/m2
13:15 5 °C 0.4 °C 1009.7 hPa North 17.7 km/h 29 km/h 72 % 0 mm 155 W/m2
13:20 5.1 °C 0.2 °C 1009.7 hPa WNW 16.1 km/h 29 km/h 71 % 0 mm 125 W/m2
13:25 5.1 °C 0.3 °C 1010 hPa NNW 17.7 km/h 29 km/h 71 % 0 mm 111 W/m2
13:35 5.2 °C 0.3 °C 1010 hPa NW 16.1 km/h 29 km/h 71 % 0 mm 95 W/m2
13:45 5.1 °C 0.1 °C 1010 hPa NW 17.7 km/h 29 km/h 70 % 0 mm 128 W/m2
13:50 5.2 °C 0.1 °C 1010 hPa WNW 19.3 km/h 19.3 km/h 70 % 0 mm 107 W/m2
13:55 5.2 °C 0.1 °C 1010 hPa WNW 20.9 km/h 22.5 km/h 70 % 0 mm 93 W/m2
14:00 5.1 °C 0.1 °C 1010 hPa WNW 20.9 km/h 20.9 km/h 70 % 0 mm 109 W/m2
14:05 5.1 °C 0.1 °C 1010.4 hPa WNW 17.7 km/h 29 km/h 70 % 0 mm 116 W/m2
14:10 5.2 °C 0.1 °C 1010.4 hPa NNW 16.1 km/h 16.1 km/h 70 % 0 mm 134 W/m2
14:20 5.2 °C 0.2 °C 1010.7 hPa WNW 17.7 km/h 29 km/h 70 % 0 mm 77 W/m2
14:25 5.2 °C 0.1 °C 1010.7 hPa WNW 17.7 km/h 29 km/h 70 % 0 mm 69 W/m2
14:30 5.1 °C -0.1 °C 1010.7 hPa NW 17.7 km/h 17.7 km/h 69 % 0 mm 65 W/m2
14:35 5 °C -0.2 °C 1010.7 hPa WNW 19.3 km/h 19.3 km/h 69 % 0 mm 60 W/m2
14:40 4.9 °C -0.3 °C 1010.7 hPa NW 19.3 km/h 29 km/h 69 % 0 mm 33 W/m2
14:45 4.8 °C -0.4 °C 1011.1 hPa WNW 19.3 km/h 29 km/h 69 % 0 mm 19 W/m2
14:50 4.8 °C -0.4 °C 1011.1 hPa WNW 17.7 km/h 17.7 km/h 69 % 0 mm 28 W/m2
15:00 4.7 °C -0.7 °C 1011.4 hPa WNW 16.1 km/h 29 km/h 68 % 0 mm 53 W/m2
15:05 4.7 °C -0.7 °C 1011.4 hPa NW 20.9 km/h 29 km/h 68 % 0 mm 42 W/m2
15:10 4.6 °C -0.8 °C 1011.4 hPa NW 20.9 km/h 20.9 km/h 68 % 0 mm 39 W/m2
15:15 4.6 °C -0.8 °C 1011.4 hPa NW 19.3 km/h 24.1 km/h 68 % 0 mm 72 W/m2
15:20 4.6 °C -0.8 °C 1011.4 hPa WNW 19.3 km/h 33.8 km/h 68 % 0 mm 56 W/m2
15:25 4.6 °C -0.8 °C 1011.7 hPa WNW 20.9 km/h 33.8 km/h 68 % 0 mm 39 W/m2
15:35 4.5 °C -0.9 °C 1011.7 hPa WNW 16.1 km/h 29 km/h 68 % 0 mm 35 W/m2
15:40 4.4 °C -0.9 °C 1011.4 hPa West 16.1 km/h 29 km/h 68 % 0 mm 23 W/m2
15:45 4.3 °C -1.1 °C 1011.4 hPa NNW 17.7 km/h 29 km/h 68 % 0 mm 19 W/m2
15:50 4.2 °C -1.2 °C 1011.7 hPa WNW 19.3 km/h 19.3 km/h 68 % 0 mm 16 W/m2
15:55 4 °C -1.4 °C 1011.7 hPa NW 16.1 km/h 29 km/h 68 % 0 mm 12 W/m2
16:00 3.9 °C -1.3 °C 1012.1 hPa West 16.1 km/h 29 km/h 69 % 0 mm 9 W/m2
16:05 3.8 °C -1.4 °C 1012.1 hPa NW 16.1 km/h 29 km/h 69 % 0 mm 7 W/m2
16:15 3.6 °C -1.6 °C 1012.4 hPa WNW 16.1 km/h 29 km/h 69 % 0 mm 5 W/m2
16:20 3.4 °C -1.5 °C 1012.4 hPa WNW 16.1 km/h 29 km/h 70 % 0 mm 0 W/m2
16:25 3.4 °C -1.6 °C 1012.4 hPa NW 17.7 km/h 29 km/h 70 % 0 mm 0 W/m2
16:30 3.3 °C -1.4 °C 1012.4 hPa NW 17.7 km/h 29 km/h 71 % 0 mm 0 W/m2
16:35 3.3 °C -1.5 °C 1012.4 hPa WNW 19.3 km/h 29 km/h 71 % 0 mm 0 W/m2
16:40 3.2 °C -1.3 °C 1012.4 hPa NW 17.7 km/h 29 km/h 72 % 0 mm 0 W/m2
16:50 3.1 °C -1.3 °C 1012.8 hPa WNW 16.1 km/h 16.1 km/h 73 % 0 mm 0 W/m2
16:55 3 °C -1.4 °C 1012.8 hPa NW 16.1 km/h 17.7 km/h 73 % 0 mm 0 W/m2
17:00 2.9 °C -1.4 °C 1012.8 hPa West 17.7 km/h 17.7 km/h 73 % 0 mm 0 W/m2
17:05 2.9 °C -1.4 °C 1013.1 hPa NW 17.7 km/h 29 km/h 73 % 0 mm 0 W/m2
17:10 2.9 °C -1.5 °C 1013.1 hPa WNW 16.1 km/h 29 km/h 73 % 0 mm 0 W/m2
17:15 2.8 °C -1.3 °C 1013.1 hPa WNW 14.5 km/h 29 km/h 74 % 0 mm 0 W/m2
17:20 2.8 °C -1.6 °C 1013.4 hPa WNW 16.1 km/h 16.1 km/h 73 % 0 mm 0 W/m2
17:30 2.7 °C -2.1 °C 1013.4 hPa NW 14.5 km/h 14.5 km/h 71 % 0 mm 0 W/m2
17:35 2.6 °C -2.1 °C 1013.1 hPa NW 14.5 km/h 17.7 km/h 71 % 0 mm 0 W/m2
17:40 2.5 °C -2.2 °C 1013.4 hPa WNW 12.9 km/h 12.9 km/h 71 % 0 mm 0 W/m2
17:45 2.4 °C -2.1 °C 1013.4 hPa NW 12.9 km/h 29 km/h 72 % 0 mm 0 W/m2
17:50 2.4 °C -2.2 °C 1013.4 hPa NNW 11.3 km/h 11.3 km/h 72 % 0 mm 0 W/m2
17:55 2.3 °C -2.3 °C 1013.4 hPa NW 11.3 km/h 29 km/h 72 % 0 mm 0 W/m2
18:00 2.2 °C -2.2 °C 1013.4 hPa NW 11.3 km/h 29 km/h 73 % 0 mm 0 W/m2
18:05 2.1 °C -2.2 °C 1013.8 hPa WNW 11.3 km/h 29 km/h 73 % 0 mm 0 W/m2
18:15 2.1 °C -2.1 °C 1013.8 hPa WNW 11.3 km/h 29 km/h 74 % 0 mm 0 W/m2
18:20 2.1 °C -1.9 °C 1013.8 hPa WNW 9.7 km/h 9.7 km/h 75 % 0 mm 0 W/m2
18:25 1.9 °C -1.8 °C 1013.8 hPa West 8 km/h 29 km/h 76 % 0 mm 0 W/m2
18:30 1.9 °C -1.7 °C 1014.1 hPa WNW 9.7 km/h 29 km/h 77 % 0 mm 0 W/m2
18:35 1.8 °C -1.8 °C 1014.1 hPa NW 9.7 km/h 29 km/h 77 % 0 mm 0 W/m2
18:45 1.7 °C -1.7 °C 1014.4 hPa WNW 9.7 km/h 29 km/h 78 % 0 mm 0 W/m2
18:50 1.7 °C -1.8 °C 1014.4 hPa WNW 9.7 km/h 29 km/h 78 % 0 mm 0 W/m2
18:55 1.6 °C -1.7 °C 1014.4 hPa NW 9.7 km/h 29 km/h 79 % 0 mm 0 W/m2
19:00 1.6 °C -1.7 °C 1014.4 hPa WNW 8 km/h 8 km/h 79 % 0 mm 0 W/m2
19:05 1.5 °C -1.7 °C 1014.4 hPa NW 9.7 km/h 9.7 km/h 79 % 0 mm 0 W/m2
19:10 1.5 °C -1.6 °C 1014.4 hPa WNW 9.7 km/h 29 km/h 80 % 0 mm 0 W/m2
19:20 1.4 °C -1.7 °C 1014.8 hPa NW 9.7 km/h 29 km/h 80 % 0 mm 0 W/m2
19:25 1.3 °C -1.7 °C 1014.8 hPa NW 9.7 km/h 29 km/h 80 % 0 mm 0 W/m2
19:30 1.3 °C -1.8 °C 1014.8 hPa WNW 9.7 km/h 29 km/h 80 % 0 mm 0 W/m2
19:35 1.3 °C -1.6 °C 1014.8 hPa WNW 9.7 km/h 29 km/h 81 % 0 mm 0 W/m2
19:40 1.2 °C -1.7 °C 1014.8 hPa WNW 8 km/h 29 km/h 81 % 0 mm 0 W/m2
19:50 1 °C -1.9 °C 1014.4 hPa WNW 9.7 km/h 9.7 km/h 81 % 0 mm 0 W/m2
19:55 0.9 °C -1.8 °C 1014.4 hPa West 11.3 km/h 14.5 km/h 82 % 0 mm 0 W/m2
20:00 0.9 °C -1.8 °C 1014.8 hPa WNW 11.3 km/h 29 km/h 82 % 0 mm 0 W/m2
20:05 0.9 °C -1.8 °C 1014.8 hPa WNW 11.3 km/h 29 km/h 82 % 0 mm 0 W/m2
20:10 0.8 °C -1.9 °C 1014.8 hPa WNW 11.3 km/h 11.3 km/h 82 % 0 mm 0 W/m2
20:20 0.8 °C -1.9 °C 1014.8 hPa WNW 11.3 km/h 11.3 km/h 82 % 0 mm 0 W/m2
20:25 0.8 °C -1.9 °C 1014.8 hPa WNW 9.7 km/h 29 km/h 82 % 0 mm 0 W/m2
20:35 0.6 °C -2.2 °C 1015.1 hPa WNW 9.7 km/h 29 km/h 82 % 0 mm 0 W/m2
20:40 0.5 °C -2.1 °C 1015.1 hPa WNW 9.7 km/h 9.7 km/h 83 % 0 mm 0 W/m2
20:45 0.4 °C -2.3 °C 1015.1 hPa WNW 9.7 km/h 12.9 km/h 82 % 0 mm 0 W/m2
20:50 0.4 °C -2.2 °C 1015.1 hPa WNW 9.7 km/h 9.7 km/h 83 % 0 mm 0 W/m2
20:55 0.3 °C -2.2 °C 1015.5 hPa WNW 8 km/h 29 km/h 83 % 0 mm 0 W/m2
21:00 0.3 °C -2.3 °C 1015.5 hPa WNW 9.7 km/h 29 km/h 83 % 0 mm 0 W/m2
21:10 0.2 °C -2.4 °C 1015.5 hPa WNW 9.7 km/h 29 km/h 83 % 0 mm 0 W/m2
21:15 0.1 °C -2.4 °C 1015.5 hPa WNW 9.7 km/h 29 km/h 83 % 0 mm 0 W/m2
21:20 0.1 °C -2.4 °C 1015.5 hPa WNW 8 km/h 29 km/h 83 % 0 mm 0 W/m2
21:25 0.1 °C -2.4 °C 1015.5 hPa NW 8 km/h 29 km/h 83 % 0 mm 0 W/m2
21:30 0.1 °C -2.7 °C 1015.8 hPa WNW 9.7 km/h 29 km/h 82 % 0 mm 0 W/m2
21:35 0.1 °C -2.6 °C 1015.8 hPa NW 9.7 km/h 29 km/h 82 % 0 mm 0 W/m2
21:40 0.2 °C -2.7 °C 1015.8 hPa WNW 11.3 km/h 11.3 km/h 81 % 0 mm 0 W/m2
21:50 0.3 °C -2.8 °C 1015.8 hPa WNW 11.3 km/h 11.3 km/h 80 % 0 mm 0 W/m2
21:55 0.3 °C -2.8 °C 1015.5 hPa WNW 11.3 km/h 29 km/h 80 % 0 mm 0 W/m2
22:00 0.3 °C -2.7 °C 1015.8 hPa NW 11.3 km/h 11.3 km/h 80 % 0 mm 0 W/m2
22:10 0.4 °C -2.8 °C 1015.8 hPa NW 14.5 km/h 29 km/h 79 % 0 mm 0 W/m2
22:15 0.4 °C -2.9 °C 1015.8 hPa NW 12.9 km/h 29 km/h 78 % 0 mm 0 W/m2
22:20 0.4 °C -2.9 °C 1015.8 hPa NW 12.9 km/h 12.9 km/h 78 % 0 mm 0 W/m2
22:30 0.4 °C -3.1 °C 1015.8 hPa WNW 11.3 km/h 11.3 km/h 77 % 0 mm 0 W/m2
22:35 0.4 °C -3.3 °C 1015.8 hPa WNW 9.7 km/h 16.1 km/h 76 % 0 mm 0 W/m2
22:40 0.4 °C -3.3 °C 1015.8 hPa NW 9.7 km/h 9.7 km/h 76 % 0 mm 0 W/m2
22:45 0.4 °C -3.6 °C 1015.8 hPa WNW 9.7 km/h 29 km/h 75 % 0 mm 0 W/m2
22:50 0.4 °C -3.5 °C 1015.8 hPa West 11.3 km/h 29 km/h 75 % 0 mm 0 W/m2
22:55 0.5 °C -3.4 °C 1015.8 hPa West 14.5 km/h 29 km/h 75 % 0 mm 0 W/m2
23:00 0.6 °C -3.6 °C 1015.8 hPa WNW 14.5 km/h 29 km/h 74 % 0 mm 0 W/m2
23:10 0.7 °C -3.6 °C 1015.8 hPa WNW 14.5 km/h 14.5 km/h 73 % 0 mm 0 W/m2
23:15 0.7 °C -3.8 °C 1015.8 hPa WNW 12.9 km/h 29 km/h 72 % 0 mm 0 W/m2
23:20 0.6 °C -3.8 °C 1015.8 hPa West 11.3 km/h 29 km/h 72 % 0 mm 0 W/m2
23:25 0.6 °C -3.9 °C 1015.8 hPa WNW 11.3 km/h 29 km/h 72 % 0 mm 0 W/m2
23:30 0.5 °C -4.2 °C 1015.8 hPa WNW 9.7 km/h 9.7 km/h 71 % 0 mm 0 W/m2
23:35 0.4 °C -4 °C 1015.8 hPa WNW 9.7 km/h 29 km/h 72 % 0 mm 0 W/m2
23:45 0.3 °C -4.2 °C 1015.8 hPa WNW 8 km/h 29 km/h 72 % 0 mm 0 W/m2
23:50 0.2 °C -4.1 °C 1015.8 hPa West 8 km/h 29 km/h 73 % 0 mm 0 W/m2
23:55 0.2 °C -4.1 °C 1015.8 hPa WNW 8 km/h 29 km/h 73 % 0 mm 0 W/m2
Delerius-Weather
Compliments of Weather Underground - 2 mb

Data updates at regular intervals.